Find Starlink 31323

NORAD ID: 58882 Int'l Des: 2024-020 Owner: SPXS Country: US Constellation: starlink operational
LEOCIRCULAR

实时位置

正在加载3D地球...

关于 Starlink 31323

正在加载描述...

即将过境

Passes for default location (London). Set your location on the main map for personalized predictions.

高度历史

Loading altitude history...

两行轨道根数

1 58882U 24020G 26120.16584012 .00001144 00000-0 50761-4 0 9990
2 58882 53.1607 83.2256 0001363 97.1074 263.0082 15.30191854125952
Epoch: Apr 30, 2026 • Age: 11 hours

当前状态

高度 494.1 km
速度 7.62 km/s
星下点 -51.76°S, 104.05°W
发射日期 Jan 29, 2024
运行时间 2.2 years
类型 internet

技术详情

分类 Payload
质量 730.00 kg
干质量 700.00 kg
总质量 730.00 kg
长度 0.30 m
直径 4.10 m
跨度 29.00 m
形状 Box + pan
制造商 SPXS
平台类型 Starlink V2M
阶段状态 In Orbit
所有者/国家 SPXS/US

Most Searched